Location: Maddington
(51.2000°N, 1.9167°W)
Time: 10:23:29
(UTC+00:00)

NOSS 3-2 (A) - Visible Passes

Search period start: 17 January 2021 00:00
Search period end: 27 January 2021 00:00
Orbit: 791 x 1417 km, 63.4° (Epoch: 20 December)

Date Brightness Start Highest point End Pass type
(mag) Time Alt. Az. Time Alt. Az. Time Alt. Az.
17 Jan 5.5 07:02:12 10° S 07:07:10 32° ESE 07:12:45 10° NE visible
17 Jan 7.4 18:12:44 10° W 18:15:05 11° WSW 18:17:30 10° WSW visible
18 Jan 6.2 06:18:10 10° SSE 06:22:14 20° ESE 06:26:40 10° ENE visible
18 Jan 6.9 17:25:11 10° WNW 17:30:13 19° WSW 17:35:32 10° SSW visible
19 Jan 6.5 05:35:21 10° SE 05:37:26 12° ESE 05:39:37 10° E visible
19 Jan 4.1 07:21:04 10° SSW 07:26:42 61° SE 07:33:12 10° NE visible
20 Jan 4.9 06:36:15 10° S 06:41:32 40° ESE 06:47:31 10° NE visible
21 Jan 5.6 05:51:54 10° SSE 05:56:31 26° ESE 06:01:38 10° ENE visible
22 Jan 6.1 05:08:16 10° SE 05:11:39 16° ESE 05:15:15 10° ENE visible
22 Jan 3.7 06:55:27 10° SW 07:01:11 75° SE 07:07:50 10° NE visible
23 Jan 4.3 06:10:27 10° SSW 06:15:56 51° ESE 06:22:14 10° NE visible
24 Jan 5.0 05:25:49 10° S 05:30:50 33° ESE 05:36:28 10° NE visible
24 Jan 3.5 07:15:23 10° WSW 07:21:12 66° NW 07:28:01 10° NE visible
25 Jan 5.6 04:41:44 10° SSE 04:45:53 21° ESE 04:50:24 10° ENE visible
25 Jan 3.5 06:29:55 10° SW 06:35:43 90° SE 06:42:29 10° NE visible
26 Jan 6.0 03:58:47 10° SE 04:01:05 12° ESE 04:03:28 10° E visible
26 Jan 3.8 05:44:44 10° SSW 05:50:22 63° SE 05:56:54 10° NE visible
